DW4075 Weather Reports


Display with metric or nautical units.
time (UTC)temp
F
wind
direction
speed
MPH
gust
MPH
rain 1hr
in
rain 24hr
in
rain mn
in
humidity
%
barometer
mb
20260507194512 69 143 4.0 8.0 0.00 0.00 0.00 20 1027.2
20260507194010 68 92 3.0 8.0 0.00 0.00 0.00 21 1027.0
20260507193508 67 150 3.0 8.0 0.00 0.00 0.00 22 1026.7
20260507193007 67 155 3.0 6.0 0.00 0.00 0.00 22 1026.8
20260507192504 68 155 4.0 6.0 0.00 0.00 0.00 21 1027.2
20260507192003 68 154 3.0 6.0 0.00 0.00 0.00 22 1027.4
20260507191456 67 65 2.0 7.0 0.00 0.00 0.00 23 1027.3
20260507190950 67 63 3.0 9.0 0.00 0.00 0.00 23 1027.3
20260507190450 67 69 5.0 9.0 0.00 0.00 0.00 22 1027.3
20260507185946 67 59 4.0 9.0 0.00 0.00 0.00 22 1027.3
20260507185445 67 70 3.0 9.0 0.00 0.00 0.00 23 1027.2
20260507184944 66 69 4.0 10.0 0.00 0.00 0.00 22 1027.3
20260507184439 66 92 4.0 10.0 0.00 0.00 0.00 24 1027.2
20260507183938 66 99 3.0 8.0 0.00 0.00 0.00 23 1027.0
20260507183435 65 57 4.0 10.0 0.00 0.00 0.00 23 1027.0
20260507182934 65 49 4.0 10.0 0.00 0.00 0.00 23 1026.9
20260507182431 64 45 4.0 10.0 0.00 0.00 0.00 25 1026.7
20260507181933 64 86 5.0 10.0 0.00 0.00 0.00 24 1026.7
20260507181430 63 71 4.0 11.0 0.00 0.00 0.00 25 1026.6
20260507180929 63 38 4.0 11.0 0.00 0.00 0.00 25 1026.6
20260507180419 63 57 4.0 10.0 0.00 0.00 0.00 25 1026.4
20260507175913 63 15 4.0 10.0 0.00 0.00 0.00 25 1026.4
20260507175414 63 24 5.0 11.0 0.00 0.00 0.00 26 1026.7
20260507174911 63 40 6.0 12.0 0.00 0.00 0.00 27 1026.8
20260507174413 63 49 5.0 12.0 0.00 0.00 0.00 28 1026.7
20260507173909 62 46 5.0 11.0 0.00 0.00 0.00 29 1026.8
20260507173408 62 39 5.0 13.0 0.00 0.00 0.00 29 1026.7
20260507172907 62 53 5.0 13.0 0.00 0.00 0.00 29 1026.7
20260507172406 62 15 5.0 10.0 0.00 0.00 0.00 28 1026.7
20260507171903 61 36 5.0 13.0 0.00 0.00 0.00 29 1026.7
20260507171404 60 45 5.0 13.0 0.00 0.00 0.00 30 1026.4
20260507170903 60 51 5.0 12.0 0.00 0.00 0.00 30 1026.6
20260507170403 60 0 6.0 12.0 0.00 0.00 0.00 29 1026.6
20260507165903 60 51 5.0 12.0 0.00 0.00 0.00 30 1026.4
20260507165403 59 49 6.0 12.0 0.00 0.00 0.00 30 1026.2
20260507164903 59 41 6.0 11.0 0.00 0.00 0.00 29 1026.2
20260507164403 59 48 6.0 16.0 0.00 0.00 0.00 29 1026.4
20260507163908 59 11 6.0 16.0 0.00 0.00 0.00 29 1026.2
20260507163405 58 9 6.0 12.0 0.00 0.00 0.00 29 1025.9
20260507162858 58 29 7.0 12.0 0.00 0.00 0.00 29 1026.1
20260507162348 57 33 7.0 12.0 0.00 0.00 0.00 29 1025.8
20260507161842 57 48 7.0 12.0 0.00 0.00 0.00 29 1025.7
20260507161603 57 5 7.0 14.0 0.00 0.00 0.00 29 1025.8
20260507160835 56 49 7.0 14.0 0.00 0.00 0.00 30 1025.6
20260507160559 55 355 7.0 18.0 0.00 0.00 0.00 34 1025.2
20260507155831 55 31 6.0 18.0 0.00 0.00 0.00 34 1025.0
20260507155324 54 39 6.0 11.0 0.00 0.00 0.00 40 1024.9
20260507154823 54 5 7.0 13.0 0.00 0.00 0.00 40 1024.7
20260507154323 53 45 7.0 13.0 0.00 0.00 0.00 40 1024.7
20260507153823 53 20 6.0 11.0 0.00 0.00 0.00 43 1024.4
20260507153322 52 58 7.0 14.0 0.00 0.00 0.00 44 1024.2
20260507153047 52 55 7.0 14.0 0.00 0.00 0.00 45 1024.0
20260507152536 52 38 7.0 12.0 0.00 0.00 0.00 46 1024.0
20260507152037 51 26 6.0 10.0 0.00 0.00 0.00 47 1023.8
20260507151316 51 30 6.0 11.0 0.00 0.00 0.00 48 1023.8
20260507150815 50 53 5.0 11.0 0.00 0.00 0.00 49 1023.4
20260507150314 50 47 5.0 10.0 0.00 0.00 0.00 52 1023.2
20260507145809 49 49 4.0 9.0 0.00 0.00 0.00 52 1023.3
20260507145307 49 38 3.0 8.0 0.00 0.00 0.00 54 1023.2
20260507144807 49 42 4.0 7.0 0.00 0.00 0.00 54 1023.0
20260507144534 48 42 3.0 7.0 0.00 0.00 0.00 56 1022.9
20260507143806 47 64 2.0 7.0 0.00 0.00 0.00 56 1022.5
20260507143307 47 71 2.0 7.0 0.00 0.00 0.00 58 1022.3
20260507143025 47 56 4.0 7.0 0.00 0.00 0.00 58 1022.2
20260507142306 46 56 4.0 8.0 0.00 0.00 0.00 57 1022.1
20260507141804 46 53 5.0 9.0 0.00 0.00 0.00 59 1021.9
20260507141300 45 51 5.0 10.0 0.00 0.00 0.00 60 1021.8
20260507140759 45 42 5.0 10.0 0.00 0.00 0.00 61 1021.6
20260507140258 44 44 4.0 8.0 0.00 0.00 0.00 63 1021.3
20260507135758 43 23 4.0 9.0 0.00 0.00 0.00 65 1021.0
20260507135255 42 47 4.0 9.0 0.00 0.00 0.00 66 1020.6
20260507134743 42 33 3.0 7.0 0.00 0.00 0.00 68 1020.4
20260507134242 41 34 3.0 7.0 0.00 0.00 0.00 70 1019.9
20260507133738 40 22 3.0 7.0 0.00 0.00 0.00 72 1019.4
20260507133238 39 9 2.0 6.0 0.00 0.00 0.00 75 1019.1
20260507132738 38 355 2.0 6.0 0.00 0.00 0.00 78 1018.7
20260507132238 37 355 2.0 6.0 0.00 0.00 0.00 81 1018.0
20260507131737 36 355 1.0 5.0 0.00 0.00 0.00 84 1017.6
20260507131235 34 355 1.0 5.0 0.00 0.00 0.00 87 1017.0
20260507130733 33 355 0.0 4.0 0.00 0.00 0.00 89 1016.3
20260507130232 31 355 0.0 3.0 0.00 0.00 0.00 91 1015.6
20260507125733 30 355 0.0 3.0 0.00 0.00 0.00 92 1014.9
20260507125231 29 355 0.0 2.0 0.00 0.00 0.00 90 1014.2
20260507124729 28 355 0.0 1.0 0.00 0.00 0.00 89 1013.8
20260507124224 27 355 0.0 2.0 0.00 0.00 0.00 88 1013.4
20260507123718 27 355 0.0 2.0 0.00 0.00 0.00 87 1013.2
20260507123211 26 355 0.0 1.0 0.00 0.00 0.00 86 1013.1
20260507122705 26 355 0.0 1.0 0.00 0.00 0.00 85 1012.9
20260507122201 26 355 1.0 2.0 0.00 0.00 0.00 84 1012.9
20260507121702 26 355 1.0 2.0 0.00 0.00 0.00 84 1012.8
20260507121200 26 355 0.0 2.0 0.00 0.00 0.00 83 1012.8
20260507120700 26 355 0.0 2.0 0.00 0.00 0.00 83 1012.9
20260507120153 26 355 1.0 3.0 0.00 0.00 0.00 83 1012.8
20260507115654 27 355 2.0 4.0 0.00 0.00 0.00 83 1012.9
20260507115147 27 355 2.0 4.0 0.00 0.00 0.00 84 1012.8
20260507114644 26 355 1.0 4.0 0.00 0.00 0.00 84 1012.7
20260507114142 26 355 1.0 3.0 0.00 0.00 0.00 84 1012.7
20260507113641 26 355 1.0 3.0 0.00 0.00 0.00 84 1012.7
20260507113402 27 355 1.0 2.0 0.00 0.00 0.00 83 1012.8
20260507112637 27 355 1.0 2.0 0.00 0.00 0.00 83 1012.9
20260507112136 27 355 1.0 2.0 0.00 0.00 0.00 83 1012.9
20260507111631 27 355 1.0 3.0 0.00 0.00 0.00 83 1012.8
20260507111131 27 355 2.0 5.0 0.00 0.00 0.00 84 1012.8
20260507110632 27 355 2.0 5.0 0.00 0.00 0.00 84 1012.6
20260507110132 27 355 1.0 4.0 0.00 0.00 0.00 84 1012.5
20260507105631 27 355 1.0 2.0 0.00 0.00 0.00 84 1012.6
20260507105131 27 355 1.0 2.0 0.00 0.00 0.00 84 1012.6
20260507104630 27 355 1.0 4.0 0.00 0.00 0.00 84 1012.5
20260507104126 28 355 2.0 4.0 0.00 0.00 0.00 85 1012.6
20260507103620 27 355 1.0 4.0 0.00 0.00 0.00 84 1012.6
20260507103118 27 355 0.0 2.0 0.00 0.00 0.00 83 1012.5
20260507102617 28 355 1.0 2.0 0.00 0.00 0.00 82 1012.8
20260507102118 28 355 1.0 2.0 0.00 0.00 0.00 83 1012.8
20260507101609 28 355 1.0 2.0 0.00 0.00 0.00 82 1012.9
20260507101108 28 355 1.0 2.0 0.00 0.00 0.00 83 1012.9
20260507100607 28 355 0.0 1.0 0.00 0.00 0.00 83 1012.9
20260507100104 28 355 0.0 0.0 0.00 0.00 0.00 83 1012.9
20260507095804 29 355 0.0 0.0 0.00 0.00 0.00 84 1013.3
20260507095757 29 355 0.0 0.0 0.00 0.00 0.00 84 1013.2
20260507094559 29 355 0.0 1.0 0.00 0.00 0.00 84 1013.2
20260507094057 29 355 0.0 1.0 0.00 0.00 0.00 84 1013.1
20260507093554 29 355 0.0 1.0 0.00 0.00 0.00 83 1012.9
20260507093051 29 355 0.0 1.0 0.00 0.00 0.00 82 1012.9
20260507092811 29 355 0.0 2.0 0.00 0.00 0.00 81 1012.9
20260507092043 29 355 0.0 2.0 0.00 0.00 0.00 80 1013.1
20260507091543 29 355 0.0 0.0 0.00 0.00 0.00 79 1013.1
20260507091040 29 355 0.0 0.0 0.00 0.00 0.00 80 1012.9
20260507090541 29 355 0.0 0.0 0.00 0.00 0.00 79 1013.1
20260507090031 30 355 0.0 2.0 0.00 0.00 0.00 79 1013.2
20260507085531 30 355 1.0 2.0 0.00 0.00 0.00 80 1013.2
20260507085030 30 355 0.0 2.0 0.00 0.00 0.00 81 1013.2
20260507084531 30 355 0.0 1.0 0.00 0.00 0.00 81 1013.1
20260507084027 30 355 0.0 0.0 0.00 0.00 0.00 80 1013.2
20260507083522 30 355 0.0 0.0 0.00 0.00 0.00 79 1013.2
20260507083019 30 355 0.0 0.0 0.00 0.00 0.00 78 1013.3
20260507082508 31 355 0.0 0.0 0.00 0.00 0.00 78 1013.6
20260507082005 31 355 0.0 1.0 0.00 0.00 0.00 79 1013.6
20260507081503 31 355 0.0 1.0 0.00 0.00 0.00 78 1013.4
20260507081003 31 355 0.0 1.0 0.00 0.00 0.00 78 1013.4
20260507080503 31 355 0.0 2.0 0.00 0.00 0.00 78 1013.4
20260507080222 31 355 1.0 2.0 0.00 0.00 0.00 79 1013.4
20260507075502 31 355 0.0 2.0 0.00 0.00 0.00 79 1013.4
20260507075220 31 355 0.0 2.0 0.00 0.00 0.00 79 1013.4
20260507074454 31 355 0.0 0.0 0.00 0.00 0.00 80 1013.3
20260507073939 31 355 0.0 0.0 0.00 0.00 0.00 78 1013.3
20260507073432 31 355 0.0 0.0 0.00 0.00 0.00 78 1013.2
20260507072931 31 355 0.0 0.0 0.00 0.00 0.00 77 1013.4
20260507072411 31 355 0.0 0.0 0.00 0.00 0.00 76 1013.4
20260507071904 32 355 0.0 0.0 0.00 0.00 0.00 76 1013.4
20260507071623 32 355 0.0 0.0 0.00 0.00 0.00 76 1013.7
20260507070904 32 355 0.0 0.0 0.00 0.00 0.00 76 1013.7
20260507070403 33 355 0.0 0.0 0.00 0.00 0.00 74 1013.8
20260507070118 33 355 0.0 0.0 0.00 0.00 0.00 75 1013.8
20260507065605 33 355 0.0 3.0 0.00 0.00 0.00 76 1013.9
20260507064837 33 355 0.0 3.0 0.00 0.00 0.00 75 1013.9
20260507064334 33 355 0.0 2.0 0.00 0.00 0.00 76 1013.9
20260507063832 33 355 0.0 1.0 0.00 0.00 0.00 74 1013.8
20260507063330 34 355 0.0 0.0 0.00 0.00 0.00 72 1013.9
20260507063046 34 355 0.0 1.0 0.00 0.00 0.00 72 1014.0
20260507062319 34 355 0.0 1.0 0.00 0.00 0.00 72 1013.9
20260507061818 34 355 0.0 0.0 0.00 0.00 0.00 73 1013.9
20260507061317 35 355 0.0 0.0 0.00 0.00 0.00 73 1014.0
20260507060810 35 355 0.0 0.0 0.00 0.00 0.00 72 1014.0
20260507060304 35 355 1.0 0.0 0.00 0.00 0.00 71 1014.2
20260507060026 36 355 1.0 1.0 0.00 0.00 0.00 70 1014.5
20260507055646 36 355 0.0 1.0 0.00 0.00 0.00 70 1014.4
20260507055634 37 355 0.0 2.0 0.00 0.00 0.00 71 1014.5
20260507054303 37 355 0.0 2.0 0.00 0.00 0.00 70 1014.6
20260507054019 37 355 0.0 2.0 0.00 0.00 0.00 70 1014.5
20260507053516 37 355 1.0 2.0 0.00 0.00 0.00 70 1014.6
20260507053018 38 355 1.0 2.0 0.00 0.00 0.00 69 1014.8
20260507052250 38 355 0.0 3.0 0.00 0.00 0.00 69 1014.9
20260507051744 38 355 0.0 3.0 0.00 0.00 0.00 69 1015.1
20260507051242 38 355 0.0 4.0 0.00 0.00 0.00 70 1015.0
20260507050741 38 355 1.0 6.0 0.00 0.00 0.00 69 1015.0
20260507050239 39 355 1.0 6.0 0.00 0.00 0.00 68 1015.1
20260507045738 39 355 0.0 4.0 0.00 0.00 0.00 67 1015.3
20260507045506 39 355 0.0 4.0 0.00 0.00 0.00 66 1015.5
20260507044732 40 355 0.0 5.0 0.00 0.00 0.00 65 1015.5
20260507044504 40 355 0.0 5.0 0.00 0.00 0.00 65 1015.7
20260507043730 41 355 0.0 3.0 0.00 0.00 0.00 65 1015.9
20260507043224 41 355 0.0 3.0 0.00 0.00 0.00 64 1016.0
20260507042714 41 355 0.0 4.0 0.00 0.01 0.00 64 1016.2
20260507042212 42 355 0.0 4.0 0.00 0.01 0.00 64 1016.2
20260507041712 42 355 1.0 4.0 0.00 0.01 0.00 63 1016.5
20260507041211 42 355 1.0 4.0 0.00 0.01 0.00 62 1016.3
20260507040717 43 355 1.0 4.0 0.00 0.01 0.00 60 1016.6
20260507040209 43 355 0.0 3.0 0.00 0.01 0.00 61 1016.6
20260507035711 44 355 1.0 4.0 0.00 0.01 0.00 60 1016.7
20260507035206 44 355 1.0 5.0 0.00 0.01 0.00 60 1016.8
20260507034659 44 355 1.0 6.0 0.00 0.01 0.00 59 1017.0
20260507034148 45 355 2.0 6.0 0.00 0.01 0.00 58 1017.0
20260507033653 45 355 2.0 6.0 0.00 0.01 0.00 57 1017.1
20260507033151 45 355 3.0 9.0 0.00 0.01 0.00 56 1017.2
20260507032648 46 0 3.0 9.0 0.00 0.01 0.00 56 1017.2
20260507032144 46 5 4.0 8.0 0.00 0.01 0.00 55 1017.2
20260507031644 46 5 4.0 8.0 0.00 0.01 0.00 55 1017.3
20260507031138 47 15 4.0 9.0 0.00 0.01 0.00 54 1017.4
20260507030634 47 19 4.0 9.0 0.00 0.01 0.00 53 1017.3
20260507030133 47 24 3.0 9.0 0.00 0.01 0.00 51 1017.3
20260507025635 47 5 3.0 9.0 0.00 0.01 0.00 48 1017.2
20260507025131 47 252 3.0 6.0 0.00 0.01 0.00 40 1017.0
20260507024632 47 249 4.0 6.0 0.00 0.01 0.00 42 1016.5
20260507024131 47 248 3.0 6.0 0.00 0.01 0.00 47 1016.3
20260507023631 47 248 2.0 5.0 0.00 0.01 0.00 46 1016.2
20260507023131 47 248 2.0 5.0 0.00 0.01 0.00 46 1016.3
20260507022631 48 248 2.0 5.0 0.00 0.01 0.00 45 1016.6
20260507022625 49 248 2.0 5.0 0.00 0.01 0.00 44 1016.7
20260507021619 49 248 1.0 4.0 0.00 0.01 0.00 43 1016.8
20260507021116 50 248 1.0 4.0 0.00 0.01 0.00 43 1017.1
20260507020613 50 248 2.0 4.0 0.00 0.01 0.00 42 1017.2
20260507020112 51 248 2.0 4.0 0.00 0.01 0.00 42 1017.3
20260507015606 51 248 1.0 4.0 0.00 0.01 0.00 41 1017.4
20260507015103 52 248 1.0 4.0 0.00 0.01 0.00 40 1017.7
20260507014604 52 248 1.0 5.0 0.00 0.01 0.00 40 1017.7
20260507014103 53 248 2.0 8.0 0.00 0.01 0.00 39 1017.9
20260507013828 53 248 4.0 10.0 0.00 0.01 0.00 39 1018.0
20260507013103 54 219 4.0 10.0 0.00 0.01 0.00 38 1018.3
20260507012603 54 261 3.0 8.0 0.00 0.01 0.00 38 1018.2
20260507012327 54 275 3.0 8.0 0.00 0.01 0.00 38 1018.2
20260507011822 55 290 4.0 8.0 0.00 0.01 0.00 37 1018.3
20260507011103 55 273 5.0 9.0 0.00 0.01 0.00 37 1018.5
20260507010602 55 281 6.0 13.0 0.00 0.01 0.00 36 1018.5
20260507010105 56 312 7.0 13.0 0.00 0.01 0.00 36 1018.7
20260507005602 56 281 7.0 16.0 0.00 0.01 0.00 35 1018.5
20260507005103 56 277 9.0 19.0 0.00 0.01 0.00 35 1018.7
20260507004602 57 271 10.0 19.0 0.00 0.01 0.00 34 1019.0
20260507004103 56 313 11.0 22.0 0.00 0.01 0.00 33 1018.9
20260507003603 56 313 13.0 23.0 0.00 0.01 0.00 32 1018.9
20260507003102 57 301 13.0 23.0 0.00 0.01 0.00 30 1019.0
20260507002603 59 279 11.0 23.0 0.00 0.01 0.00 29 1019.5
20260507002103 60 304 12.0 24.0 0.00 0.01 0.00 30 1019.7
20260507001603 60 301 13.0 24.0 0.00 0.01 0.00 30 1019.5
20260507001102 60 254 12.0 26.0 0.00 0.01 0.00 31 1019.5
20260507000556 61 312 13.0 26.0 0.00 0.01 0.00 29 1019.9
20260507000045 61 297 13.0 22.0 0.00 0.01 0.00 29 1019.7
20260506235545 61 303 10.0 20.0 0.00 0.01 0.00 29 1019.6
20260506235037 62 271 7.0 13.0 0.00 0.01 0.00 28 1019.6
20260506234733 63 302 9.0 14.0 0.00 0.01 0.00 30 1020.0
20260506234728 63 259 7.0 13.0 0.00 0.01 0.00 28 1020.1
20260506233535 62 317 9.0 19.0 0.00 0.01 0.00 30 1019.4
20260506233035 61 278 9.0 19.0 0.00 0.01 0.00 30 1018.9
20260506232533 61 286 8.0 18.0 0.00 0.01 0.00 30 1019.0
20260506232032 63 313 8.0 18.0 0.00 0.01 0.00 29 1019.5
20260506231531 63 271 8.0 16.0 0.00 0.01 0.00 30 1019.5
20260506231030 63 276 9.0 19.0 0.00 0.01 0.00 31 1019.4
20260506230533 62 237 11.0 22.0 0.00 0.01 0.00 31 1019.3
20260506230031 62 285 13.0 22.0 0.00 0.01 0.00 30 1019.1
20260506225531 63 294 12.0 22.0 0.00 0.01 0.00 30 1019.5
20260506225031 64 319 10.0 20.0 0.00 0.01 0.00 31 1019.7
20260506224531 63 292 11.0 20.0 0.00 0.01 0.00 33 1019.6
20260506224029 63 304 11.0 20.0 0.00 0.01 0.00 33 1019.3
20260506223519 62 313 10.0 23.0 0.00 0.01 0.00 35 1018.8
20260506223018 61 277 9.0 23.0 0.00 0.01 0.00 36 1018.5
20260506222516 61 244 10.0 21.0 0.00 0.01 0.00 37 1018.5
20260506222017 60 248 11.0 22.0 0.00 0.01 0.00 39 1018.2
20260506221515 59 259 8.0 22.0 0.00 0.01 0.00 40 1017.8
20260506221013 57 277 7.0 16.0 0.00 0.01 0.00 48 1017.3
20260506220512 55 244 9.0 16.0 0.00 0.01 0.00 51 1016.1
20260506220010 53 296 10.0 19.0 0.00 0.01 0.00 50 1015.5
20260506215505 54 289 13.0 23.0 0.00 0.01 0.00 52 1015.7
20260506215004 54 282 14.0 25.0 0.00 0.01 0.00 47 1015.7
20260506214503 55 304 15.0 25.0 0.00 0.01 0.00 53 1016.3
20260506214001 58 311 14.0 25.0 0.00 0.01 0.00 43 1017.4
20260506213455 62 288 12.0 22.0 0.00 0.01 0.00 38 1018.8
20260506212944 65 263 10.0 22.0 0.00 0.01 0.00 30 1019.5
20260506212443 65 226 9.0 20.0 0.00 0.01 0.00 31 1019.3
20260506212159 63 209 8.0 20.0 0.00 0.01 0.00 31 1018.4
20260506211700 63 192 8.0 15.0 0.00 0.01 0.00 32 1018.4
20260506211156 64 263 10.0 21.0 0.00 0.01 0.00 30 1018.8
20260506210441 65 225 11.0 21.0 0.00 0.01 0.00 30 1019.1
20260506210202 64 274 10.0 18.0 0.00 0.01 0.00 30 1019.1
20260506205438 64 291 8.0 22.0 0.00 0.01 0.00 30 1018.8
20260506204936 64 281 8.0 19.0 0.00 0.01 0.00 31 1018.8
20260506204434 63 224 9.0 16.0 0.00 0.01 0.00 30 1018.5
20260506203932 64 261 7.0 16.0 0.00 0.01 0.00 31 1018.7
20260506203654 62 234 6.0 14.0 0.00 0.01 0.00 35 1018.2
20260506202932 61 257 8.0 16.0 0.00 0.01 0.00 34 1017.7
20260506202433 61 317 7.0 16.0 0.00 0.01 0.00 33 1017.6
20260506201932 61 302 7.0 19.0 0.00 0.01 0.00 34 1017.6
20260506201654 60 275 8.0 19.0 0.00 0.01 0.00 34 1017.3
20260506200934 61 286 6.0 14.0 0.00 0.01 0.00 33 1017.6
20260506200431 61 249 6.0 14.0 0.00 0.01 0.00 34 1017.6
20260506200123 62 294 7.0 14.0 0.00 0.01 0.00 38 1018.2
20260506200115 62 244 5.0 10.0 0.00 0.01 0.00 34 1018.0
20260506195629 62 294 5.0 11.0 0.00 0.01 0.00 37 1018.2